Weather Service Report


933 
ASCA44 KEWX 081620
RWRMX 

LATIN AMERICA AND CARIBBEAN REGIONAL WEATHER ROUNDUP
NATIONAL WEATHER SERVICE AUSTIN/SAN ANTONIO TX
1000 AM CST MON FEB 08 2016

NOTE: "FAIR" INDICATED FEW OR NO CLOUDS BELOW 12,000 FEET WITH NO
SIGNIFICANT WEATHER AND/OR OBSTRUCTIONS TO VISIBILITY.

BAJA CALIFORNIA
  
CITY           SKY/WX    TMP DP  RH WIND       PRES   REMARKS
LORETO         CLOUDY    73  52  46 CALM      30.03R                  
LA PAZ         PTSUNNY   70  48  46 N9        30.03                   
MEXICALI       SUNNY     61  27  27 W7        30.23                   
S.J. DEL CABO    N/A    N/A N/A N/A MISG        N/A                   
TIJUANA        SUNNY     73  25  16 E13       30.14R                  

NORTHWESTERN MEXICO
  
CITY           SKY/WX    TMP DP  RH WIND       PRES   REMARKS
CULIACAN       CLOUDY    68  54  60 SE7       29.97                   
DURANGO        CLOUDY    55   9  15 N6        30.38                   
GUAYMAS        CLOUDY    66  39  37 CALM      29.98                   
HERMOSILLO     PTSUNNY   59  37  44 CALM      30.08                   
CD. JUAREZ     PTSUNNY   41  23  48 MISG      30.47                   
LOS MOCHIS     CLOUDY    66  57  72 NW15      30.00R                  
OBREGON        PTSUNNY   59  52  77 NW3       29.99                   

NORTHEASTERN MEXICO
  
CITY           SKY/WX    TMP DP  RH WIND       PRES   REMARKS
CHIHUAHUA      PTSUNNY   52  10  19 CALM      30.41                   
MATAMOROS      PTSUNNY   64  57  77 W7        30.31                   
MONCLOVA       PTSUNNY   55  25  30 NE21      30.45R                  
MONTERREY      PTSUNNY   61  21  21 NW17G35   30.34R                  
NUEVO LAREDO   PTSUNNY   55  32  41 N9        30.44R                  
PIEDRAS NEGRAS   N/A    N/A N/A N/A MISG        N/A                   
REYNOSA        PTSUNNY   59  46  63 N10       30.34                   
SALTILLO       PTSUNNY   59  30  33 N6        30.42R                  
TORREON        CLOUDY    57  23  26 CALM      30.32R                  
CD. VICTORIA   CLOUDY    63  46  55 N8        30.31                   

WESTERN MEXICO
  
CITY           SKY/WX    TMP DP  RH WIND       PRES   REMARKS
AGUASCALIENTES PTSUNNY   64  10  12 N14       30.36                   
COLIMA         MOSUNNY   75  39  27 N7        30.05R                  
DEL BAJIO      PTSUNNY   55  14  19 SE5       30.42R                  
GUADALAJARA    PTSUNNY   54  25  32 SE3       30.31                   
MANZANILLO     PTSUNNY   81  73  78 SE14      29.89R                  
MAZATLAN       CLOUDY    68  59  73 N5        29.94R                  
P. VALLARTA    CLOUDY    70  59  68 N3        29.91                   
URUAPAN        CLOUDY    61  46  59 CALM      30.22                   
ZACATECAS      PTSUNNY   54  21  28 N6        30.39R                  

CENTRAL MEXICO
  
CITY           SKY/WX    TMP DP  RH WIND       PRES   REMARKS
CUERNAVACA     MOSUNNY   70  25  18 CALM      30.22R                  
MEXICO CITY    MOSUNNY   55  25  30 W6        30.44R                  
MORELIA        PTSUNNY   50  28  43 CALM      30.35                   
POZA RICA      PTSUNNY   63  59  88 CALM      30.27R                  
PUEBLA         PTSUNNY   61  19  20 N13       30.38S                  
QUERETARO      PTSUNNY   50  27  40 SE5       30.45R WCI  48          
S. LUIS POTOSI CLOUDY    50  23  34 S5        30.39R WCI  48          
TAMPICO        PTSUNNY   66  54  63 W6        30.28R                  
TOLUCA         PTSUNNY   50  28  43 NW6       30.46R WCI  48          

SOUTHERN MEXICO
  
CITY           SKY/WX    TMP DP  RH WIND       PRES   REMARKS
ACAPULCO       MOSUNNY   81  66  61 N5        29.95R                  
B. DE HUATULCO MOSUNNY   82  63  51 CALM      30.04                   
OAXACA         PTSUNNY   57  32  38 NW3       30.33R                  
P. ESCONDIDO   MOSUNNY   81  59  47 NE6       30.06R                  
VERACRUZ       PTSUNNY   70  55  60 NW6       30.26R                  
ZIHUATANEJO    MOSUNNY   81  70  69 CALM      29.95R                  

YUCATAN PENINSULA
  
CITY           SKY/WX    TMP DP  RH WIND       PRES   REMARKS
CAMPECHE       PTSUNNY   66  54  63 E12       30.21R                  
CANCUN         PTSUNNY   70  63  78 W6        30.19R                  
CHETUMAL       MOSUNNY   68  57  68 N8        30.21                   
CD. DEL CARMEN PTSUNNY   70  57  64 E9        30.23                   
COZUMEL        PTSUNNY   68  61  77 N14       30.19R                  
MERIDA         CLOUDY    68  52  56 CALM      30.24R                  
MINATITLAN     MOSUNNY   70  64  83 CALM      30.18                   
TAPACHULA      SUNNY     84  72  65 CALM      29.99R                  
TUX. GUTIERREZ MOSUNNY   63  46  55 CALM      30.20R                  
VILLAHERMOSA   PTSUNNY   68  59  73 SW5       30.25R                  

CENTRAL AMERICA
  
CITY           SKY/WX    TMP DP  RH WIND       PRES   REMARKS
BELIZE CITY      N/A    N/A N/A N/A NW6       30.21S                  
MANAGUA        MOSUNNY   84  66  54 E16       29.94S                  

CARIBBEAN
  
CITY           SKY/WX    TMP DP  RH WIND       PRES   REMARKS
ARUBA          MOSUNNY   86  72  62 E24G38    29.92F HX  92           
CURACAO        PTSUNNY   84  72  65 SE21      29.97F                  
KINGSTON       MOSUNNY   86  73  66 SE20      29.97F HX  93           
NASSAU         MOSUNNY   73  57  56 W3        30.11S                  
SAN JUAN       MOSUNNY   82  73  74 NW9       30.05F                  
SANTO DOMINGO  PTSUNNY   84  73  70 SE7       30.03F HX  91           
ST. CROIX      MOSUNNY   84  72  65 SE10      30.08F                  
ST. KITTS      MOSUNNY   86  73  66 E12       30.06S HX  93           
ST. MAARTEN    MOSUNNY   82  73  74 SE10      30.06F                  
ST. THOMAS     MOSUNNY   82  73  74 E9        30.08F                  

$$

  

Return to Home page


Western Regional Climate Center, wrcc@dri.edu